716  
ASUS43 KTOP 162208  
RWRKS  
 
WEATHER ROUNDUP FOR KANSAS  
NATIONAL WEATHER SERVICE GOODLAND KS  
500 PM CDT MON SEP 16 2019  
 
NOTE: "FAIR" INDICATES FEW OR NO CLOUDS BELOW 12,000 FEET WITH NO  
SIGNIFICANT WEATHER AND/OR S TO VISIBILITY
.  
 
KSZ001>006-013>018-027>032-041>047-162300-  
NORTHWEST KANSAS  
 
CITY SKY/WX TMP DP RH WIND PRES REMARKS
 
GOODLAND MOSUNNY 86 53 32 S28G40 29.89F  
HAYS SUNNY 92 59 33 S16G24 29.93F  
HILL CITY SUNNY 91 54 28 S22G35 29.91F  
RUSSELL MOSUNNY 91 56 30 S21G29 29.92F  

 
 
KSZ061>065-074>080-084>089-162300-  
SOUTHWEST KANSAS  
 
CITY SKY/WX TMP DP RH WIND PRES REMARKS
 
DODGE CITY MOSUNNY 92 52 25 S23G39 29.97S  
ELKHART PTSUNNY 90 55 30 S18 29.98F  
GARDEN CITY SUNNY 92 50 23 S24G38 29.95F  
LIBERAL MOSUNNY 91 53 27 S23G36 29.98F  
PRATT SUNNY 93 53 25 S22G29 29.98S  

 
 
KSZ066>073-081>083-090>101-162300-  
SOUTHEAST KANSAS  
 
CITY SKY/WX TMP DP RH WIND PRES REMARKS
 
CHANUTE MOSUNNY 93 70 46 S12 30.03F HX 99  
COFFEYVILLE SUNNY 91 70 49 S9 30.01F HX 96  
HUTCHINSON SUNNY 93 60 33 S20G29 29.97F  
MEDICINE LODGE N/A 93 60 33 S15G26 29.96F  
NEWTON N/A 88 66 48 S18 30.00F  
PARSONS SUNNY 91 73 55 SE6 30.03F HX 99  
WICHITA INTL MOSUNNY 91 65 41 S16G24 29.99F  
WICHITA JABRA SUNNY 89 68 49 S15G25 30.00F  
WICHITA MCCONL SUNNY 90 63 41 E17 30.00F  
WINFIELD SUNNY 88 68 51 S16 30.01F  

 
 
KSZ007>012-019>026-033>040-048>060-102>105-162300-  
NORTHEAST KANSAS  
 
CITY SKY/WX TMP DP RH WIND PRES REMARKS
 
CONCORDIA MOSUNNY 92 63 38 S15G28 29.95F  
LAWRENCE SUNNY 91 69 48 SE8 30.01F HX 96  
MANHATTAN SUNNY 91 68 46 S13 29.97F HX 95  
MARYSVILLE SUNNY 88 68 51 S10 29.98S  
OLATHE IND SUNNY 88 69 53 S7 30.04F  
OLATHE EXE MOSUNNY 89 70 53 SW9 30.03F  
SALINA SUNNY 91 62 37 S13G25 29.95F  
TOPEKA BILLARD SUNNY 90 68 48 S13 30.00F  
TOPEKA FORBES SUNNY 90 69 50 S9 30.01F  

 
 
 
CLICK HERE TO GO TO PREVIOUS BULLETINS.

The Nexlab KS Page Main Text Page